period_start,C,m1,H,J0,J1,J2,J3,J4,J5,JA,JB,JC,JD,JJ,JK,JN,#
2016-11-15 00:03:27,0.15,1.67,0.00,20.45,25.35,28.95,14.69,46.98,1022.50,2038.00,2959.34,2669.04,3031.70,599.76,604.33,14.22,0000 0000 0000 0000 000000
2016-11-15 00:08:28,0.14,1.67,0.00,20.43,25.35,28.97,14.90,46.91,1022.56,2038.00,2956.87,2667.28,3029.60,600.79,605.44,14.27,0000 0000 0000 0000 000000
2016-11-15 00:13:30,0.14,1.68,0.00,20.43,25.35,28.97,14.71,46.44,1022.73,2038.00,2954.32,2665.53,3027.58,599.63,604.48,14.32,0000 0000 0000 0000 000000
2016-11-15 00:18:31,0.15,1.69,0.00,20.44,25.34,28.96,14.80,47.24,1022.72,2038.00,2951.66,2663.66,3025.43,599.98,604.81,14.37,0000 0000 0000 0000 000000
2016-11-15 00:23:32,0.13,1.70,0.00,20.45,25.33,28.97,14.76,46.70,1022.58,2038.00,2949.25,2661.94,3023.52,599.89,604.68,14.42,0000 0000 0000 0000 000000
2016-11-15 00:28:33,0.13,1.70,0.00,20.45,25.32,28.97,14.82,46.58,1022.49,2038.01,2946.74,2660.22,3021.50,600.01,604.83,14.47,0000 0000 0000 0000 000000
2016-11-15 00:33:34,0.14,1.71,0.00,20.44,25.32,28.97,14.82,46.93,1022.48,2038.00,2944.23,2658.46,3019.46,599.60,604.41,14.52,0000 0000 0000 0000 000000
2016-11-15 00:38:36,0.15,1.72,0.00,20.46,25.32,28.96,14.81,46.16,1022.48,2038.00,2941.73,2656.68,3017.34,599.69,604.35,14.57,0000 0000 0000 0000 000000
2016-11-15 00:43:37,0.16,1.73,0.00,20.41,25.32,28.96,14.82,46.69,1022.49,2038.00,2939.05,2654.79,3015.20,600.63,605.43,14.62,0000 0000 0000 0000 000000
2016-11-15 00:48:38,0.15,1.73,0.00,20.38,25.32,28.96,14.91,46.78,1022.48,2038.00,2936.44,2652.84,3012.96,600.27,605.16,14.67,0000 0000 0000 0000 000000
2016-11-15 00:53:39,0.15,1.74,0.00,20.42,25.32,28.93,14.79,47.22,1022.48,2038.00,2933.75,2650.99,3010.86,600.34,605.08,14.72,0000 0000 0000 0000 000000
2016-11-15 00:58:41,0.14,1.75,0.00,20.44,25.32,28.95,14.96,47.15,1022.38,2038.00,2931.18,2649.14,3008.71,600.34,604.98,14.77,0000 0000 0000 0000 000000
2016-11-15 01:03:42,0.15,1.76,0.00,20.43,25.32,28.94,14.80,46.97,1022.35,2038.00,2928.53,2647.30,3006.77,599.71,604.63,14.82,0000 0000 0000 0000 000000
2016-11-15 01:08:43,0.16,1.76,0.00,20.37,25.32,28.93,14.86,47.03,1022.20,2038.00,2925.85,2645.37,3004.59,599.61,604.43,14.87,0000 0000 0000 0000 000000
2016-11-15 01:13:44,0.15,1.77,0.00,20.37,25.32,28.95,14.86,47.13,1022.14,2038.00,2923.12,2643.48,3002.37,599.97,604.54,14.92,0000 0000 0000 0000 000000
2016-11-15 01:18:46,0.15,1.78,0.00,20.38,25.32,28.95,14.84,46.90,1022.00,2038.00,2920.53,2641.64,3000.27,600.72,605.26,14.97,0000 0000 0000 0000 000000
2016-11-15 01:23:47,0.15,1.79,0.00,20.40,25.32,28.95,14.72,46.69,1021.86,2038.00,2917.95,2639.79,2998.12,599.67,604.05,15.02,0000 0000 0000 0000 000000
2016-11-15 01:28:48,0.16,1.80,0.00,20.38,25.32,28.94,14.80,46.82,1021.74,2038.00,2915.13,2637.79,2995.84,600.09,604.62,15.08,0000 0000 0000 0000 000000
2016-11-15 01:33:49,0.16,1.80,0.00,20.38,25.32,28.95,14.84,47.10,1021.58,2038.00,2912.31,2635.75,2993.50,600.70,604.93,15.13,0000 0000 0000 0000 000000
2016-11-15 01:38:50,0.17,1.81,0.00,20.34,25.32,28.97,14.79,47.34,1021.54,2038.01,2909.32,2633.61,2991.11,600.74,605.16,15.18,0000 0000 0000 0000 000000
2016-11-15 01:43:51,0.17,1.82,0.00,20.33,25.31,28.96,14.68,47.53,1021.37,2038.01,2906.33,2631.45,2988.68,599.40,603.68,15.23,0000 0000 0000 0000 000000
2016-11-15 01:48:53,0.25,1.83,0.00,20.32,25.30,28.96,14.83,47.48,1021.34,2038.02,2902.87,2628.30,2985.27,600.87,605.22,15.28,0000 0000 0000 0000 000000
2016-11-15 01:53:54,0.19,1.85,0.00,20.33,25.30,28.94,14.92,47.42,1021.40,2038.02,2899.51,2625.67,2982.29,601.15,605.47,15.33,0000 0000 0000 0000 000000
2016-11-15 01:58:56,0.16,1.85,0.00,20.36,25.30,28.93,14.64,46.56,1021.20,2038.01,2896.57,2623.45,2979.73,599.34,603.44,15.38,0000 0000 0000 0000 000000
2016-11-15 02:03:57,0.17,1.86,0.00,20.34,25.30,28.98,14.87,47.31,1021.06,2038.01,2893.58,2621.44,2977.28,600.28,604.57,15.43,0000 0000 0000 0000 000000
2016-11-15 02:08:58,0.19,1.87,0.00,20.35,25.30,28.95,14.76,47.58,1021.02,2038.01,2890.67,2619.25,2974.74,600.08,603.86,15.48,0000 0000 0000 0000 000000
2016-11-15 02:14:00,0.19,1.88,0.00,20.35,25.30,28.95,14.89,47.13,1021.00,2038.01,2887.49,2616.90,2972.01,600.61,604.63,15.53,0000 0000 0000 0000 000000
2016-11-15 02:19:01,0.31,1.89,0.00,20.33,25.30,28.96,14.72,47.85,1020.83,2038.01,2883.63,2613.60,2968.38,600.10,604.07,15.58,0000 0000 0000 0000 000000
2016-11-15 02:24:02,0.30,1.91,0.00,20.37,25.30,28.94,14.73,47.02,1020.84,2038.04,2879.25,2608.94,2963.44,599.86,603.73,15.63,0000 0000 0000 0000 000000
2016-11-15 02:29:03,0.20,1.92,0.00,20.32,25.30,28.94,14.66,46.92,1020.76,2038.02,2875.97,2606.07,2960.28,599.20,603.03,15.68,0000 0000 0000 0000 000000
2016-11-15 02:34:05,0.18,1.93,0.00,20.34,25.30,28.94,14.76,47.63,1020.76,2038.03,2873.09,2603.67,2957.55,599.80,603.70,15.73,0000 0000 0000 0000 000000
2016-11-15 02:39:06,0.18,1.94,0.00,20.34,25.30,28.91,14.67,46.77,1020.71,2038.06,2870.24,2601.39,2955.07,599.37,603.17,15.78,0000 0000 0000 0000 000000
2016-11-15 02:44:07,0.18,1.95,0.00,20.33,25.30,28.93,14.65,46.95,1020.68,2038.04,2867.35,2599.21,2952.56,599.12,602.95,15.83,0000 0000 0000 0000 000000
2016-11-15 02:49:08,0.19,1.96,0.00,20.32,25.30,28.94,14.80,46.93,1020.48,2038.08,2864.39,2597.00,2950.02,600.11,603.80,15.88,0000 0000 0000 0000 000000
2016-11-15 02:54:10,0.17,1.97,0.00,20.32,25.30,28.94,14.78,47.64,1020.51,2038.07,2861.48,2594.79,2947.43,600.72,604.51,15.93,0000 0000 0000 0000 000000
2016-11-15 02:59:11,0.16,1.98,0.00,20.31,25.29,28.94,14.75,47.52,1020.52,2038.02,2858.55,2592.64,2944.94,599.78,603.59,15.98,0000 0000 0000 0000 000000
2016-11-15 03:04:13,0.15,1.99,0.00,20.34,25.28,28.90,14.76,46.83,1020.52,2038.02,2856.03,2590.76,2942.83,600.32,604.01,16.03,0000 0000 0000 0000 000000
2016-11-15 03:09:14,0.16,1.99,0.00,20.31,25.28,28.93,14.76,47.23,1020.52,2038.02,2853.32,2588.87,2940.67,599.93,603.75,16.08,0000 0000 0000 0000 000000
2016-11-15 03:14:15,0.14,2.00,0.00,20.32,25.28,28.90,14.90,47.67,1020.52,2038.04,2850.98,2587.14,2938.63,600.72,604.51,16.13,0000 0000 0000 0000 000000
2016-11-15 03:19:17,0.19,2.01,0.00,20.33,25.27,28.91,14.74,46.50,1020.52,2038.05,2848.30,2585.17,2936.33,600.27,603.92,16.18,0000 0000 0000 0000 000000
2016-11-15 03:24:18,0.18,2.02,0.00,20.33,25.27,28.92,14.76,47.17,1020.52,2038.02,2845.16,2582.68,2933.52,599.93,603.58,16.23,0000 0000 0000 0000 000000
2016-11-15 03:29:19,0.15,2.03,0.00,20.34,25.27,28.91,14.73,46.42,1020.52,2038.01,2842.58,2580.82,2931.35,599.48,603.48,16.28,0000 0000 0000 0000 000000
2016-11-15 03:34:20,0.17,2.04,0.00,20.37,25.27,28.84,14.64,46.54,1020.55,2038.01,2839.98,2578.99,2929.10,599.93,603.57,16.33,0000 0000 0000 0000 000000
2016-11-15 03:39:21,0.13,2.04,0.00,20.35,25.27,28.89,14.71,46.58,1020.55,2038.01,2837.59,2577.32,2927.21,600.31,603.86,16.38,0000 0000 0000 0000 000000
2016-11-15 03:44:23,0.15,2.05,0.00,20.37,25.27,28.88,14.73,46.92,1020.54,2038.01,2835.10,2575.56,2925.14,600.26,604.02,16.43,0000 0000 0000 0000 000000
2016-11-15 03:49:24,0.15,2.06,0.00,20.37,25.27,28.87,14.63,46.91,1020.52,2038.01,2832.57,2573.76,2923.07,599.84,603.57,16.48,0000 0000 0000 0000 000000
2016-11-15 03:54:26,0.14,2.07,0.00,20.36,25.27,28.93,14.79,46.58,1020.52,2038.01,2830.17,2572.10,2921.09,600.06,603.77,16.53,0000 0000 0000 0000 000000
2016-11-15 03:59:27,0.16,2.07,0.00,20.38,25.27,28.92,14.68,47.22,1020.51,2038.00,2827.57,2570.29,2918.98,599.72,603.30,16.58,0000 0000 0000 0000 000000
2016-11-15 04:04:29,0.16,2.08,0.00,20.37,25.27,28.94,14.76,46.93,1020.50,2038.00,2824.95,2568.43,2916.83,600.34,604.10,16.63,0000 0000 0000 0000 000000
2016-11-15 04:09:30,0.16,2.09,0.00,20.35,25.27,28.93,14.68,46.67,1020.50,2038.00,2822.37,2566.67,2914.72,599.30,603.02,16.68,0000 0000 0000 0000 000000
2016-11-15 04:14:31,0.16,2.10,0.00,20.30,25.27,28.91,14.87,47.50,1020.48,2038.01,2819.80,2564.75,2912.64,600.71,604.37,16.73,0000 0000 0000 0000 000000
2016-11-15 04:19:32,0.13,2.10,0.00,20.29,25.28,28.92,14.74,46.50,1020.50,2038.01,2817.46,2563.13,2910.61,599.22,603.20,16.78,0000 0000 0000 0000 000000
2016-11-15 04:24:33,0.16,2.11,0.00,20.32,25.29,28.92,14.83,47.48,1020.39,2038.00,2815.11,2561.34,2908.49,600.51,604.25,16.83,0000 0000 0000 0000 000000
2016-11-15 04:29:35,0.15,2.12,0.00,20.34,25.29,28.92,14.61,47.39,1020.36,2038.00,2812.44,2559.52,2906.33,599.20,602.85,16.88,0000 0000 0000 0000 000000
2016-11-15 04:34:36,0.14,2.13,0.00,20.33,25.29,28.92,14.90,47.72,1020.46,2038.00,2809.99,2558.00,2904.43,601.59,605.42,16.93,0000 0000 0000 0000 000000
2016-11-15 04:39:37,0.14,2.13,0.00,20.31,25.30,28.91,14.82,47.52,1020.52,2038.01,2807.60,2556.37,2902.44,600.37,604.29,16.98,0000 0000 0000 0000 000000
2016-11-15 04:44:39,0.14,2.14,0.00,20.29,25.30,28.92,14.85,47.07,1020.51,2038.01,2805.24,2554.72,2900.47,600.14,604.04,17.03,0000 0000 0000 0000 000000
2016-11-15 04:49:40,0.16,2.15,0.00,20.30,25.30,28.91,14.81,47.74,1020.49,2038.01,2802.65,2552.95,2898.41,599.81,603.70,17.08,0000 0000 0000 0000 000000
2016-11-15 04:54:42,0.15,2.16,0.00,20.33,25.30,28.92,14.76,47.15,1020.48,2038.00,2800.21,2551.22,2896.36,599.58,603.11,17.13,0000 0000 0000 0000 000000
2016-11-15 04:59:43,0.15,2.17,0.00,20.36,25.30,28.93,14.80,47.19,1020.51,2038.01,2797.71,2549.50,2894.37,600.24,603.76,17.18,0000 0000 0000 0000 000000
2016-11-15 05:04:44,0.15,2.17,0.00,20.39,25.30,28.92,14.78,47.51,1020.16,2038.03,2795.25,2547.76,2892.33,600.03,603.47,17.23,0000 0000 0000 0000 000000
2016-11-15 05:09:45,0.16,2.18,0.00,20.39,25.30,28.91,14.77,47.29,1020.06,2038.02,2792.55,2545.91,2890.17,599.61,602.92,17.28,0000 0000 0000 0000 000000
2016-11-15 05:14:46,0.14,2.19,0.00,20.36,25.30,28.92,14.82,47.11,1020.06,2038.01,2790.20,2544.22,2888.13,600.07,603.48,17.33,0000 0000 0000 0000 000000
2016-11-15 05:19:47,0.16,2.20,0.00,20.41,25.31,28.89,14.74,47.18,1020.12,2038.01,2787.75,2542.44,2885.91,600.08,603.29,17.38,0000 0000 0000 0000 000000
2016-11-15 05:24:49,0.13,2.20,0.00,20.44,25.32,28.89,14.79,46.62,1020.19,2038.01,2785.63,2540.87,2884.11,600.25,603.56,17.43,0000 0000 0000 0000 000000
2016-11-15 05:29:50,0.14,2.21,0.00,20.50,25.32,28.89,14.79,46.66,1020.21,2038.00,2783.40,2539.34,2882.25,599.61,602.83,17.48,0000 0000 0000 0000 000000
2016-11-15 05:34:52,0.15,2.22,0.00,20.50,25.34,28.87,14.73,47.28,1020.17,2038.01,2781.08,2537.72,2880.34,600.26,603.47,17.53,0000 0000 0000 0000 000000
2016-11-15 05:39:53,0.14,2.23,0.00,20.49,25.35,28.86,14.77,46.78,1020.15,2038.01,2778.69,2535.97,2878.46,600.01,603.24,17.58,0000 0000 0000 0000 000000
2016-11-15 05:44:54,0.18,2.24,0.00,20.50,25.36,28.87,14.72,46.24,1020.14,2038.00,2776.11,2533.87,2876.11,599.87,603.06,17.64,0000 0000 0000 0000 000000
2016-11-15 05:49:56,0.13,2.24,0.00,20.52,25.37,28.88,14.77,46.71,1020.22,2038.00,2773.75,2532.23,2874.16,600.20,603.41,17.69,0000 0000 0000 0000 000000
2016-11-15 05:54:57,0.14,2.25,0.00,20.55,25.37,28.89,14.78,46.18,1020.25,2038.00,2771.50,2530.66,2872.31,600.12,603.39,17.74,0000 0000 0000 0000 000000
2016-11-15 05:59:59,0.18,2.26,0.00,20.58,25.40,28.89,14.72,46.27,1020.22,2038.00,2769.08,2528.69,2870.06,599.80,602.89,17.79,0000 0000 0000 0000 000000
2016-11-15 06:05:00,0.17,2.27,0.00,20.55,25.41,28.92,14.81,47.02,1020.09,2038.00,2766.47,2526.33,2867.45,600.31,603.38,17.84,0000 0000 0000 0000 000000
2016-11-15 06:10:01,0.15,2.28,0.00,20.55,25.42,28.90,14.69,47.04,1020.27,2038.00,2764.17,2524.65,2865.50,600.17,603.31,17.89,0000 0000 0000 0000 000000
2016-11-15 06:15:03,0.12,2.28,0.00,20.57,25.42,28.92,14.76,46.28,1020.36,2038.00,2762.01,2523.26,2863.75,600.12,603.35,17.94,0000 0000 0000 0000 000000
2016-11-15 06:20:04,0.14,2.29,0.00,20.58,25.44,28.95,14.79,46.22,1020.45,2037.98,2759.80,2521.68,2861.87,599.92,603.11,17.99,0000 0000 0000 0000 000000
2016-11-15 06:25:06,0.12,2.30,0.00,20.55,25.45,28.95,14.73,46.23,1020.50,2037.98,2757.59,2520.21,2860.06,599.97,603.27,18.04,0000 0000 0000 0000 000000
2016-11-15 06:30:07,0.14,2.30,0.00,20.53,25.46,29.01,14.73,46.35,1020.49,2037.98,2755.47,2518.70,2858.30,600.16,603.58,18.09,0000 0000 0000 0000 000000
2016-11-15 06:35:08,0.12,2.31,0.00,20.55,25.47,28.98,14.76,46.25,1020.50,2037.97,2753.27,2517.17,2856.54,599.96,603.38,18.14,0000 0000 0000 0000 000000
2016-11-15 06:40:09,0.11,2.32,0.00,20.59,25.48,29.03,14.79,46.21,1020.52,2037.94,2751.48,2515.80,2854.85,600.03,603.28,18.19,0000 0000 0000 0000 000000
2016-11-15 06:45:10,0.10,2.32,0.00,20.53,25.50,29.04,14.79,47.37,1020.50,2037.78,2749.45,2514.39,2853.13,600.56,604.02,18.24,0000 0000 0000 0000 000000
2016-11-15 06:50:11,0.12,2.33,0.00,20.53,25.50,29.02,14.77,47.72,1020.42,2037.70,2747.30,2512.90,2851.46,599.63,603.05,18.29,0000 0000 0000 0000 000000
2016-11-15 06:55:13,0.12,2.33,0.00,20.58,25.51,29.03,14.78,47.51,1020.53,2037.70,2745.28,2511.60,2849.81,599.89,603.00,18.34,0000 0000 0000 0000 000000
2016-11-15 07:00:14,0.08,2.34,0.00,20.62,25.52,29.05,14.80,47.27,1020.56,2037.39,2743.29,2510.18,2848.11,600.23,603.42,18.39,0000 0000 0000 0000 000000
2016-11-15 07:05:15,0.11,2.34,0.00,20.59,25.52,29.06,14.68,47.02,1020.73,2037.23,2741.37,2508.80,2846.49,599.41,602.82,18.44,0000 0000 0000 0000 000000
2016-11-15 07:10:16,0.11,2.35,0.00,20.62,25.54,29.03,14.72,47.06,1020.69,2037.13,2739.46,2507.54,2844.88,600.78,604.00,18.49,0000 0000 0000 0000 000000
2016-11-15 07:15:18,0.10,2.36,0.00,20.68,25.55,29.05,14.76,47.11,1020.84,2037.06,2737.54,2506.21,2843.31,600.00,603.35,18.54,0000 0000 0000 0000 000000
2016-11-15 07:20:19,0.12,2.36,0.00,20.72,25.56,29.01,14.83,47.73,1021.01,2037.05,2735.77,2504.89,2841.73,600.56,603.85,18.59,0000 0000 0000 0000 000000
2016-11-15 07:25:21,0.11,2.37,0.00,20.74,25.57,29.03,14.81,46.90,1020.98,2037.01,2733.86,2503.62,2840.23,599.65,602.84,18.64,0000 0000 0000 0000 000000
2016-11-15 07:30:22,0.12,2.37,0.00,20.75,25.58,29.03,14.75,46.91,1021.02,2037.01,2731.92,2502.35,2838.66,600.57,603.78,18.69,0000 0000 0000 0000 000000
2016-11-15 07:35:23,0.11,2.38,0.00,20.78,25.60,29.06,14.75,46.66,1021.01,2037.00,2729.94,2500.96,2837.04,599.72,602.89,18.74,0000 0000 0000 0000 000000
2016-11-15 07:40:25,0.12,2.38,0.00,20.81,25.61,29.06,14.72,46.45,1021.01,2037.00,2728.11,2499.71,2835.53,600.18,603.21,18.79,0000 0000 0000 0000 000000
2016-11-15 07:45:26,0.10,2.39,0.00,20.80,25.62,29.07,14.70,46.14,1021.06,2037.00,2726.22,2498.46,2834.00,599.96,603.08,18.84,0000 0000 0000 0000 000000
2016-11-15 07:50:28,0.11,2.40,0.00,20.85,25.65,29.04,14.71,46.27,1021.05,2037.00,2724.44,2497.21,2832.57,600.07,603.13,18.89,0000 0000 0000 0000 000000
2016-11-15 07:55:28,0.10,2.40,0.00,20.90,25.66,29.11,14.74,46.21,1021.10,2036.99,2722.72,2496.02,2831.13,600.26,603.01,18.94,0000 0000 0000 0000 000000
2016-11-15 08:00:30,0.10,2.41,0.00,20.88,25.68,29.11,14.70,46.43,1021.18,2036.98,2721.01,2494.91,2829.69,600.31,603.37,18.99,0000 0000 0000 0000 000000
2016-11-15 08:05:31,0.12,2.41,0.00,20.91,25.70,29.14,14.66,46.87,1021.10,2036.97,2719.02,2493.68,2828.16,599.64,602.76,19.04,0000 0000 0000 0000 000000
2016-11-15 08:10:33,0.10,2.42,0.00,20.92,25.72,29.18,14.73,46.06,1021.19,2036.97,2717.43,2492.59,2826.80,600.17,603.22,19.09,0000 0000 0000 0000 000000
2016-11-15 08:15:34,0.08,2.42,0.00,20.91,25.74,29.16,14.77,46.20,1021.40,2036.88,2715.86,2491.49,2825.52,600.04,603.13,19.14,0000 0000 0000 0000 000000
2016-11-15 08:20:35,0.08,2.43,0.00,20.95,25.75,29.15,14.69,46.11,1021.50,2036.73,2714.29,2490.37,2824.16,599.97,603.13,19.19,0000 0000 0000 0000 000000
2016-11-15 08:25:37,0.06,2.43,0.00,21.01,25.77,29.18,14.70,45.96,1021.52,2036.26,2712.57,2489.17,2822.71,600.02,603.00,19.24,0000 0000 0000 0000 000000
2016-11-15 08:30:38,0.09,2.43,0.00,20.98,25.80,29.21,14.73,46.08,1021.52,2036.06,2710.85,2487.97,2821.36,600.13,603.04,19.29,0000 0000 0000 0000 000000
2016-11-15 08:35:39,0.10,2.44,0.00,21.00,25.81,29.21,14.66,45.97,1021.65,2036.03,2709.24,2486.84,2819.96,599.94,603.08,19.34,0000 0000 0000 0000 000000
2016-11-15 08:40:40,0.10,2.44,0.00,21.02,25.83,29.23,14.68,46.12,1021.87,2036.01,2707.64,2485.73,2818.65,599.88,603.03,19.39,0000 0000 0000 0000 000000
2016-11-15 08:45:42,0.10,2.45,0.00,20.99,25.85,29.25,14.72,46.04,1021.95,2036.00,2705.99,2484.59,2817.31,600.01,603.25,19.44,0000 0000 0000 0000 000000
2016-11-15 08:50:43,0.10,2.45,0.00,21.04,25.87,29.29,14.67,45.93,1021.98,2036.00,2704.35,2483.54,2816.02,599.64,602.82,19.49,0000 0000 0000 0000 000000
2016-11-15 08:55:45,0.11,2.46,0.00,21.05,25.89,29.32,14.81,46.10,1021.99,2036.00,2702.56,2482.29,2814.65,600.14,603.29,19.54,0000 0000 0000 0000 000000
2016-11-15 09:00:46,0.09,2.47,0.00,21.06,25.91,29.31,14.69,46.01,1021.99,2036.00,2700.96,2481.23,2813.44,600.15,603.20,19.59,0000 0000 0000 0000 000000
2016-11-15 09:05:48,0.09,2.47,0.00,21.13,25.93,29.29,14.78,46.02,1021.99,2035.99,2699.48,2480.18,2812.11,599.91,602.78,19.64,0000 0000 0000 0000 000000
2016-11-15 09:10:49,0.10,2.48,0.00,21.14,25.95,29.33,14.70,45.98,1021.99,2035.99,2697.92,2479.04,2810.74,600.03,602.89,19.69,0000 0000 0000 0000 000000
2016-11-15 09:15:50,0.09,2.48,0.00,21.15,25.97,29.36,14.69,46.08,1021.99,2035.97,2696.32,2477.91,2809.45,599.93,602.83,19.74,0000 0000 0000 0000 000000
2016-11-15 09:20:52,0.09,2.49,0.00,21.18,25.99,29.38,14.73,46.02,1022.00,2035.93,2694.72,2476.82,2808.19,600.16,603.06,19.79,0000 0000 0000 0000 000000
2016-11-15 09:25:53,0.07,2.49,0.00,21.17,26.01,29.42,14.73,46.71,1022.00,2035.67,2693.12,2475.72,2806.85,600.05,602.98,19.84,0000 0000 0000 0000 000000
2016-11-15 09:30:54,0.07,2.49,0.00,21.19,26.03,29.41,14.69,46.32,1022.00,2035.30,2691.59,2474.64,2805.54,600.11,603.05,19.89,0000 0000 0000 0000 000000
2016-11-15 09:35:56,0.08,2.50,0.00,21.22,26.05,29.44,14.69,46.19,1022.02,2035.07,2689.90,2473.52,2804.18,599.73,602.51,19.94,0000 0000 0000 0000 000000
2016-11-15 09:40:57,0.09,2.50,0.00,21.23,26.07,29.46,14.71,46.11,1022.10,2035.01,2688.46,2472.46,2802.89,599.87,602.67,19.99,0000 0000 0000 0000 000000
2016-11-15 09:45:58,0.10,2.51,0.00,21.27,26.09,29.44,14.70,46.13,1022.31,2035.01,2686.93,2471.42,2801.57,599.96,602.97,20.04,0000 0000 0000 0000 000000
2016-11-15 09:51:00,0.09,2.51,0.00,21.31,26.11,29.48,14.67,46.11,1022.47,2035.00,2685.53,2470.34,2800.38,599.94,602.79,20.09,0000 0000 0000 0000 000000
2016-11-15 09:56:01,0.09,2.52,0.00,21.33,26.13,29.52,14.65,46.00,1022.48,2035.00,2683.88,2469.30,2799.07,600.00,602.92,20.14,0000 0000 0000 0000 000000
2016-11-15 10:01:02,0.09,2.52,0.00,21.33,26.15,29.52,14.73,46.01,1022.51,2035.00,2682.39,2468.19,2797.80,600.05,602.97,20.19,0000 0000 0000 0000 000000
2016-11-15 10:06:03,0.09,2.53,0.00,21.39,26.17,29.52,14.77,46.13,1022.59,2034.98,2680.88,2467.20,2796.55,600.31,603.15,20.24,0000 0000 0000 0000 000000
2016-11-15 10:11:05,0.09,2.53,0.00,21.39,26.20,29.57,14.79,46.01,1022.94,2034.97,2679.53,2466.22,2795.41,599.90,602.92,20.29,0000 0000 0000 0000 000000
2016-11-15 10:16:06,0.08,2.54,0.00,21.39,26.22,29.58,14.71,46.10,1022.97,2034.95,2678.02,2465.15,2794.20,600.19,603.11,20.34,0000 0000 0000 0000 000000
2016-11-15 10:21:07,0.05,2.54,0.00,21.46,26.24,29.59,14.73,47.08,1022.97,2034.69,2676.56,2464.17,2792.97,600.10,603.04,20.39,0000 0000 0000 0000 000000
2016-11-15 10:26:08,0.07,2.54,0.00,21.44,26.26,29.65,14.62,47.08,1022.98,2034.29,2675.05,2463.05,2791.71,599.93,602.91,20.44,0000 0000 0000 0000 000000
2016-11-15 10:31:09,0.07,2.55,0.00,21.45,26.28,29.64,14.71,46.88,1022.99,2034.08,2673.65,2462.03,2790.51,600.18,602.96,20.49,0000 0000 0000 0000 000000
2016-11-15 10:36:11,0.07,2.55,0.00,21.52,26.30,29.66,14.69,46.59,1022.98,2034.05,2672.37,2461.09,2789.40,599.58,602.32,20.54,0000 0000 0000 0000 000000
2016-11-15 10:41:12,0.09,2.56,0.00,21.51,26.32,29.66,14.67,46.17,1023.01,2034.01,2670.89,2460.11,2788.24,599.97,602.70,20.59,0000 0000 0000 0000 000000
2016-11-15 10:46:13,0.09,2.56,0.00,21.52,26.35,29.69,14.64,46.07,1023.32,2034.00,2669.49,2459.09,2786.97,599.77,602.87,20.64,0000 0000 0000 0000 000000
2016-11-15 10:51:15,0.09,2.57,0.00,21.57,26.37,29.73,14.72,46.29,1023.43,2034.00,2668.04,2458.05,2785.75,600.50,603.45,20.69,0000 0000 0000 0000 000000
2016-11-15 10:56:16,0.09,2.57,0.00,21.57,26.39,29.76,14.80,46.63,1023.41,2034.00,2666.57,2457.05,2784.66,599.76,602.73,20.74,0000 0000 0000 0000 000000
2016-11-15 11:01:17,0.08,2.57,0.00,21.55,26.41,29.78,14.76,46.08,1023.45,2033.98,2665.24,2456.11,2783.53,600.12,602.99,20.79,0000 0000 0000 0000 000000
2016-11-15 11:06:18,0.09,2.58,0.00,21.60,26.43,29.80,14.76,45.97,1023.47,2033.97,2663.87,2455.17,2782.35,599.99,602.87,20.85,0000 0000 0000 0000 000000
2016-11-15 11:11:20,0.08,2.58,0.00,21.60,26.45,29.82,14.64,45.89,1023.57,2033.96,2662.58,2454.18,2781.18,599.79,602.79,20.90,0000 0000 0000 0000 000000
2016-11-15 11:16:21,0.05,2.59,0.00,21.60,26.47,29.83,14.79,45.88,1023.82,2033.79,2661.19,2453.21,2780.01,600.06,603.20,20.94,0000 0000 0000 0000 000000
2016-11-15 11:21:22,0.07,2.59,0.00,21.66,26.50,29.86,14.66,46.56,1023.93,2033.36,2659.77,2452.23,2778.82,600.24,603.25,20.99,0000 0000 0000 0000 000000
2016-11-15 11:26:24,0.06,2.59,0.00,21.69,26.52,29.90,14.77,46.18,1023.94,2033.12,2658.47,2451.25,2777.67,599.85,602.82,21.05,0000 0000 0000 0000 000000
2016-11-15 11:31:25,0.08,2.60,0.00,21.67,26.54,29.90,14.75,46.58,1023.94,2033.05,2657.08,2450.28,2776.57,600.04,603.09,21.10,0000 0000 0000 0000 000000
2016-11-15 11:36:26,0.09,2.60,0.00,21.71,26.56,29.93,14.69,46.07,1023.94,2033.01,2655.76,2449.33,2775.50,599.89,602.86,21.15,0000 0000 0000 0000 000000
2016-11-15 11:41:27,0.09,2.61,0.00,21.74,26.57,29.95,14.73,46.09,1023.94,2033.01,2654.48,2448.47,2774.36,599.75,602.71,21.20,0000 0000 0000 0000 000000
2016-11-15 11:46:29,0.08,2.61,0.00,21.72,26.59,29.94,14.76,46.11,1023.94,2033.00,2653.08,2447.50,2773.21,600.14,603.03,21.25,0000 0000 0000 0000 000000
2016-11-15 11:51:30,0.09,2.61,0.00,21.79,26.61,29.97,14.67,45.92,1023.94,2033.00,2651.80,2446.55,2772.11,599.97,602.72,21.30,0000 0000 0000 0000 000000
2016-11-15 11:56:32,0.08,2.62,0.00,21.79,26.63,30.02,14.71,46.36,1023.96,2033.00,2650.52,2445.65,2770.99,600.40,603.19,21.35,0000 0000 0000 0000 000000
2016-11-15 12:01:33,0.09,2.62,0.00,21.78,26.66,30.02,14.70,47.27,1024.02,2032.97,2649.08,2444.59,2769.80,599.79,602.66,21.40,0000 0000 0000 0000 000000
2016-11-15 12:06:34,0.08,2.63,0.00,21.83,26.67,30.04,14.76,46.60,1024.07,2032.90,2647.72,2443.65,2768.68,599.94,602.72,21.45,0000 0000 0000 0000 000000
2016-11-15 12:11:36,0.05,2.63,0.00,21.85,26.70,30.07,14.73,46.20,1024.26,2032.70,2646.45,2442.72,2767.63,599.97,602.84,21.50,0000 0000 0000 0000 000000
2016-11-15 12:16:37,0.03,2.63,0.00,21.83,26.72,30.08,14.72,46.13,1024.39,2032.29,2645.19,2441.80,2766.51,600.21,603.06,21.55,0000 0000 0000 0000 000000
2016-11-15 12:21:38,0.07,2.64,0.00,21.88,26.73,30.08,14.66,46.04,1024.43,2032.06,2643.83,2440.83,2765.39,599.66,602.73,21.60,0000 0000 0000 0000 000000
2016-11-15 12:26:40,0.08,2.64,0.00,21.92,26.75,30.11,14.67,46.02,1024.43,2032.01,2642.50,2439.85,2764.23,599.83,602.55,21.65,0000 0000 0000 0000 000000
2016-11-15 12:31:41,0.09,2.65,0.00,21.88,26.77,30.16,14.68,45.99,1024.43,2032.00,2641.04,2438.83,2762.99,599.68,602.53,21.70,0000 0000 0000 0000 000000
2016-11-15 12:36:42,0.08,2.65,0.00,21.92,26.80,30.14,14.74,46.44,1024.43,2032.00,2639.75,2437.91,2761.92,600.31,602.88,21.75,0000 0000 0000 0000 000000
2016-11-15 12:41:43,0.08,2.65,0.00,21.97,26.81,30.19,14.72,46.26,1024.46,2032.00,2638.52,2437.03,2760.88,599.82,602.51,21.80,0000 0000 0000 0000 000000
2016-11-15 12:46:45,0.08,2.66,0.00,21.96,26.83,30.24,14.67,45.94,1024.67,2031.99,2637.31,2436.11,2759.83,600.01,602.85,21.85,0000 0000 0000 0000 000000
2016-11-15 12:51:46,0.09,2.66,0.00,21.95,26.85,30.23,14.71,45.87,1024.79,2031.99,2635.99,2435.20,2758.73,599.97,602.97,21.90,0000 0000 0000 0000 000000
2016-11-15 12:56:47,0.09,2.67,0.00,21.98,26.87,30.23,14.77,45.90,1024.90,2031.98,2634.70,2434.31,2757.62,600.16,603.08,21.95,0000 0000 0000 0000 000000